Location: Little Sturgeon
(44.8389°N, 87.5626°W)
Time: 23:21:57
(UTC+00:00)

Daily predictions for brighter satellites

Satellite Brightness Start Highest point End
(mag) Time Altitude Azimuth Time Altitude Azimuth Time Altitude Azimuth
Cosmos 1743 3.0 12:01:25 10° S 12:04:35 56° E 12:07:48 10° NNE
Cosmos 1733 0.7 12:03:53 10° SSW 12:05:30 72° W 12:06:10 28° N
Helios 1A Rocket 3.5 12:02:43 10° SSW 12:05:31 25° W 12:06:52 19° WNW
BREEZE-M DEB (TANK) 4.3 12:04:42 10° SSW 12:06:57 31° SE 12:09:22 10° ENE
SL-16 R/B 2.6 12:02:18 13° NW 12:07:05 42° WSW 12:12:22 10° S
Cosmos 2082 Rocket 3.5 12:06:06 16° WNW 12:07:57 19° NW 12:11:50 10° N
Cosmos 2026 Rocket 4.3 12:02:21 10° SW 12:07:59 40° WNW 12:13:42 10° N
Cosmos 1626 Rocket 3.5 12:04:01 10° SSW 12:08:26 75° W 12:12:51 10° N
COSMOS 2428 4.5 12:04:00 10° N 12:08:46 26° NE 12:13:31 10° ESE
ATLAS 3B R/B 4.0 12:10:22 10° NNW 12:17:38 38° NE 12:24:35 10° ESE
ARIANE 5 R/B 3.3 12:14:18 10° NNE 12:19:28 60° ESE 12:24:36 10° S
SL-4 R/B 1.8 12:17:39 14° NW 12:20:13 51° NNE 12:23:19 10° ESE
Cosmos-2242 3.9 12:21:32 10° NNW 12:25:07 27° W 12:28:40 10° SSW
IRIDIUM 104 4.4 12:20:30 10° SSW 12:25:36 55° W 12:30:45 10° N
COSMO-SKYMED 1 4.0 12:23:33 10° SW 12:26:20 17° W 12:29:08 10° NW
S3M 4.2 12:24:41 10° N 12:30:54 76° E 12:37:01 10° SSE
NOSS 8 (A) 4.2 12:29:12 10° NW 12:32:07 66° SW 12:35:29 10° SSE
Cosmos 1553 Rocket 4.3 12:26:40 10° NNW 12:32:50 52° W 12:38:59 10° SSW
BREEZE-M DEB (TANK) 3.3 12:31:06 10° W 12:34:24 69° SSW 12:43:41 10° ESE
Okean 1-7 Rocket 3.9 12:29:57 10° S 12:34:26 75° E 12:38:55 10° NNE
CZ-2D R/B 2.6 12:31:58 10° N 12:35:09 73° WNW 12:38:18 10° SSW
Cosmos 1814 Rocket 4.3 12:30:20 10° SW 12:35:21 45° WNW 12:40:26 10° N
CBERS-1 4.3 12:34:14 10° N 12:39:03 43° WNW 12:43:50 10° SW
CORIOLIS 4.1 12:33:54 10° N 12:39:15 69° WNW 12:44:36 10° SSW
ATLAS 2AS CENTAUR R/B 2.9 12:33:30 10° SSW 12:40:35 82° ESE 12:47:29 10° NE
BREEZE-M DEB (TANK) 3.6 12:38:37 10° WNW 12:41:26 48° N 12:49:01 10° ENE
Cosmos 1812 Rocket 3.5 12:37:19 10° NNW 12:41:36 66° W 12:45:54 10° S
Cosmos 405 Rocket 3.3 12:39:42 10° SW 12:42:28 25° WNW 12:45:15 10° NNW
NOSS 3-2 (A) 3.2 22:33:41 10° SW 22:38:38 81° NW 22:44:34 10° NE
NOSS 3-2 (C) 3.6 22:34:22 10° S 22:38:56 40° ESE 22:44:14 10° NE
Cosmos 724 4.5 22:41:48 10° NNW 22:47:43 52° NE 22:53:28 10° SE
Cosmos 1697 Rocket 3.6 22:45:41 10° SSE 22:50:27 30° ESE 22:55:15 10° NE
USA 290 2.8 22:48:42 10° N 22:51:46 36° ENE 22:54:48 10° SE
SAR-Lupe-4 4.3 22:49:08 10° SE 22:52:16 30° ENE 22:55:25 10° N
Cosmos 1602 Rocket 3.9 22:48:11 10° N 22:52:23 41° ENE 22:56:29 10° SSE
NOSS 2-2 (D) 3.5 22:51:41 10° SW 22:55:01 50° NW 22:57:59 10° NNE
ATLAS CENTAUR R/B 0.5 22:53:26 10° NNW 22:56:41 72° NE 22:59:47 10° SE
Cosmos 2228 3.9 22:55:06 10° SSW 22:59:13 51° WNW 23:03:22 10° N
Cosmos 1777 Rocket 4.1 22:54:13 10° S 22:59:21 58° ESE 23:04:29 10° NNE
YAOGAN 1 4.1 22:58:32 10° E 23:00:53 15° ENE 23:03:14 10° NNE
Cosmos 1782 2.5 22:57:21 10° S 23:00:57 88° W 23:04:34 10° N
CZ-2D R/B 3.3 22:59:08 10° SE 23:02:00 34° ENE 23:04:53 10° N
IRIDIUM 114 4.5 22:57:23 10° N 23:02:30 51° E 23:07:33 10° SSE
SMAP 3.0 22:58:23 10° SSE 23:02:59 66° ENE 23:07:37 10° N
Gbstr 26 Del rocket 3.5 23:01:56 10° SSW 23:05:52 39° SE 23:08:45 14° ENE
UNK 3.7 23:01:41 10° NNE 23:06:16 72° ESE 23:10:48 10° S
Landsat 7 3.8 23:03:51 10° SSE 23:08:24 58° ENE 23:12:58 10° N
Meteor 1-20 Rocket 4.2 23:04:56 10° N 23:10:21 60° ENE 23:15:44 10° SSE
NOSS 2-2 (E) 3.7 23:07:14 10° WSW 23:10:31 43° NW 23:13:22 11° NNE
IRIDIUM 103 4.3 23:06:30 10° N 23:11:42 62° E 23:16:51 10° SSE
Cosmos 1655 Rocket 4.5 23:10:20 10° N 23:16:02 36° ENE 23:21:41 10° SE
Lacrosse 4 Rocket 3.9 23:14:31 10° WNW 23:16:33 13° NW 23:18:33 10° NNW
Cosmos 1656 4.2 23:11:01 10° SW 23:16:34 62° WNW 23:22:13 10° NNE
Cosmos 1486 Rocket 4.1 23:11:34 10° SSW 23:16:46 79° WNW 23:22:03 10° NNE
BREEZE-M DEB (TANK) 4.3 23:14:19 10° WNW 23:17:20 36° N 23:23:29 15° ENE
Cosmos 1743 2.3 23:14:29 10° N 23:17:45 81° W 23:20:58 10° S
Cosmos 1867 3.7 23:14:55 10° NNW 23:20:15 51° NE 23:25:33 10° SE
Cosmos 2279 Rocket 4.5 23:14:57 10° SSW 23:21:06 65° W 23:27:19 10° N
Cosmos 1825 Rocket 3.7 23:21:53 10° N 23:26:05 46° ENE 23:30:14 10° SSE
CENTAUR R/B 4.0 23:21:55 10° W 23:27:05 28° NNW 23:33:19 10° NNE
Aureole 1 Rocket 4.4 23:24:27 10° SE 23:27:41 21° E 23:28:37 20° ENE
Cosmos 2098 Rocket 3.7 23:25:00 10° SSW 23:28:54 56° WNW 23:33:33 10° N
Cosmos 2297 Rocket 2.4 23:23:16 10° NNW 23:28:56 77° WSW 23:34:35 10° SSE
IRIDIUM 106 4.3 23:24:47 10° N 23:30:02 89° E 23:35:15 10° S
Cosmos 2151 3.0 23:25:58 10° N 23:30:08 80° W 23:34:17 10° S
NOSS 2-3 (C) 4.0 23:30:13 10° S 23:33:15 28° ESE 23:34:00 25° E
Cosmos 990 Rocket 4.0 23:30:29 10° S 23:35:29 59° ESE 23:39:43 15° NNE
NOSS 7 (H) 4.4 23:32:51 10° NNW 23:35:40 43° NE 23:36:38 31° E
ARIANE 5 R/B 2.6 23:31:11 10° SSE 23:36:13 80° WSW 23:41:22 10° NNW
IRS-P3 4.0 23:32:47 10° SSE 23:38:04 76° ENE 23:43:24 10° NNW
USA 238 DEB 4.0 23:33:34 10° S 23:39:03 38° ESE 23:42:20 23° ENE
USA 238 4.0 23:33:42 10° S 23:39:10 37° ESE 23:42:24 23° ENE
Cosmos 2058 Rocket 3.9 23:39:21 10° SSE 23:43:11 29° E 23:43:32 28° E
CZ-4 R/B 4.3 23:41:18 10° SSE 23:45:10 58° ENE 23:49:04 10° N
Cosmos 2219 4.0 23:41:10 10° N 23:46:09 29° NE 23:47:30 27° ENE
Meteor 1-25 Rocket 4.3 23:40:36 10° N 23:46:27 90° W 23:52:13 10° S
Cosmos 1933 3.2 23:43:09 10° S 23:46:59 80° W 23:50:49 10° N
SPOT 1/Viking Rocket 3.5 23:42:01 10° SSE 23:47:08 63° ENE 23:52:17 10° N
Cosmos 1607 4.3 23:41:39 10° NW 23:47:51 70° WSW 23:54:07 10° SSE
SAR-Lupe-3 3.4 23:47:40 72° NNE 23:47:53 88° E 23:50:23 10° SSW
USA 215 4.2 23:44:52 21° NE 23:48:09 32° N 23:53:46 10° NW
BlueWalker 3 3.9 23:45:12 10° WNW 23:48:20 27° SW 23:51:27 10° SSE
SJ-12 4.4 23:45:28 10° S 23:49:10 56° W 23:52:54 10° NNW
CZ-4C R/B 3.0 23:43:05 10° NW 23:50:15 89° SW 23:59:04 10° SE
Meteor 1-5 Rocket 4.0 23:47:33 10° N 23:52:53 68° ENE 23:58:19 10° SSE
Cosmos 1980 Rocket 2.5 23:47:38 10° S 23:52:57 43° ESE 23:55:10 30° ENE
Cosmos 1076 Rocket 3.5 23:49:41 10° N 23:53:57 59° E 23:58:12 10° SSE
Cosmos 2084 Rocket 3.5 23:51:18 10° NW 23:55:31 76° SW 23:59:42 10° SSE
